Omak, WA

5:12 AM PDT on August 17, 2017 (GMT -0700)
Omak

Weather History for KOMK - September, 2014

Change the Weather History Date:

Thursday, September 11, 2014

  Actual Average Record
Temperature  
Mean Temperature 51 °F 64 °F  
Max Temperature 68 °F 80 °F 98 °F (2011)
Min Temperature 33 °F 49 °F 33 °F (2014)
Degree Days  
Heating Degree Days 14 3  
Month to date heating degree days 37 25  
Since 1 July heating degree days 42 56  
Cooling Degree Days 0 2  
Month to date cooling degree days 15 38  
Year to date cooling degree days 839 644  
Moisture  
Dew Point 24 °F    
Average Humidity 43    
Maximum Humidity 70    
Minimum Humidity 16    
Precipitation  
Precipitation 0.00 in 0.02 in 0.39 in (1966)
Month to date precipitation 0.40 0.19  
Year to date precipitation 6.64 9.47  
Sea Level Pressure  
Sea Level Pressure 30.41 in    
Wind  
Wind Speed 5 mph (NW)    
Max Wind Speed 12 mph    
Max Gust Speed 14 mph    
Visibility 10 miles    
Events      
T = Trace of Precipitation, MM = Missing Value Source: NWS Daily Summary

Daily Weather History Graph

Daily Weather History Graph

Search for Another Location

Airport or City:

Trip Planner

Search our weather history database for the weather conditions in past years. The results will help you decide how hot, cold, wet, or windy it might be!

Date:

Astronomy

Sep. 11, 2014 Rise Set
Actual Time 6:29 AM PDT 7:18 PM PDT
Civil Twilight 5:57 AM PDT 7:50 PM PDT
Nautical Twilight 5:19 AM PDT 8:28 PM PDT
Astronomical Twilight 4:39 AM PDT 9:08 PM PDT
Moon 8:42 PM PDT (9/11) 9:48 AM PDT (9/11)
Length of Visible Light 13h 52m
Length of Day
12h 49m
Waning Gibbous, 90% of the Moon is Illuminated
Sep 11
Waning Gibbous
Sep 15
Last Quarter
Sep 23
New
Oct 1
First Quarter
Oct 8
Full

Hourly Weather History & Observations

Time (PDT) Temp. Windchill Dew Point Humidity Pressure Visibility Wind Dir Wind Speed Gust Speed Precip Events Conditions
12:53 AM 44.1 °F 41.5 °F 28.9 °F 55% 30.42 in 10.0 mi Variable 4.6 mph - N/A   Partly Cloudy
1:53 AM 41.0 °F 37.1 °F 28.0 °F 60% 30.43 in 10.0 mi NW 5.8 mph - N/A   Clear
2:53 AM 46.0 °F 41.0 °F 28.9 °F 51% 30.44 in 10.0 mi North 10.4 mph - N/A   Clear
3:53 AM 39.0 °F 34.0 °F 28.0 °F 65% 30.46 in 10.0 mi NW 6.9 mph - N/A   Clear
4:53 AM 39.9 °F - 28.0 °F 63% 30.47 in 10.0 mi Calm Calm - N/A   Clear
5:53 AM 35.1 °F 31.0 °F 27.0 °F 72% 30.49 in 10.0 mi NNW 4.6 mph - N/A   Clear
6:53 AM 36.0 °F 32.1 °F 27.0 °F 70% 30.51 in 10.0 mi North 4.6 mph - N/A   Clear
7:53 AM 46.0 °F 43.9 °F 27.0 °F 47% 30.51 in 10.0 mi North 4.6 mph - N/A   Clear
8:53 AM 50.0 °F - 27.0 °F 41% 30.51 in 10.0 mi NE 6.9 mph - N/A   Clear
9:53 AM 55.9 °F - 27.0 °F 33% 30.50 in 10.0 mi NNE 6.9 mph - N/A   Clear
10:53 AM 59.0 °F - 24.1 °F 26% 30.49 in 10.0 mi North 8.1 mph - N/A   Clear
11:53 AM 61.0 °F - 21.0 °F 21% 30.47 in 10.0 mi NNW 4.6 mph - N/A   Clear
12:53 PM 64.0 °F - 21.0 °F 19% 30.44 in 10.0 mi Variable 3.5 mph - N/A   Clear
1:53 PM 66.0 °F - 21.0 °F 18% 30.41 in 10.0 mi Calm Calm - N/A   Clear
2:53 PM 64.9 °F - 21.0 °F 19% 30.38 in 10.0 mi SSW 3.5 mph - N/A   Clear
3:53 PM 66.0 °F - 21.0 °F 18% 30.36 in 10.0 mi Variable 4.6 mph - N/A   Clear
4:53 PM 66.9 °F - 21.0 °F 17% 30.34 in 10.0 mi South 4.6 mph - N/A   Clear
5:53 PM 66.9 °F - 19.9 °F 17% 30.32 in 10.0 mi South 3.5 mph - N/A   Clear
6:53 PM 63.0 °F - 24.1 °F 23% 30.31 in 10.0 mi SSW 3.5 mph - N/A   Clear
7:53 PM 48.0 °F - 28.0 °F 46% 30.31 in 10.0 mi Calm Calm - N/A   Clear
8:53 PM 53.1 °F - 21.9 °F 30% 30.31 in 10.0 mi WNW 8.1 mph - N/A   Clear
9:53 PM 53.1 °F - 21.0 °F 29% 30.30 in 10.0 mi West 5.8 mph - N/A   Clear
10:53 PM 46.0 °F 42.5 °F 21.9 °F 39% 30.30 in 10.0 mi WNW 6.9 mph - N/A   Clear
11:53 PM 41.0 °F 37.1 °F 21.9 °F 47% 30.30 in 10.0 mi NW 5.8 mph - N/A   Clear